X  Close Overskyet i løbet af dagen.
Conditions Temperature Feels Precipitation Wind Wind Direction UV index Pressure
04:00 partly-cloudy-night Skyet 13° - 9-11 m/s ESE ESE - 1017,7
05:00 cloudy Overskyet 12° 0.01 mm 1% 9-10 m/s ESE ESE - 1018,1
06:00 cloudy Overskyet 12° 0.01 mm 1% 8-10 m/s ESE ESE - 1018,5
07:00 cloudy Overskyet 12° 0.01 mm 2% 8-10 m/s ESE ESE - 1018,8
08:00 cloudy Overskyet 12° 0.01 mm 2% 8-10 m/s ESE ESE - 1019,0
09:00 cloudy Overskyet 12° - 8-10 m/s ESE ESE - 1019,0
10:00 cloudy Overskyet 12° - 8-9 m/s ESE ESE uv-1 1018,7
11:00 cloudy Overskyet 13° - 8-9 m/s ESE ESE uv-2 1018,9
12:00 cloudy Overskyet 13° - 8-9 m/s ESE ESE uv-2 1018,9
13:00 cloudy Overskyet 13° - 7-9 m/s ESE ESE uv-2 1019,2
14:00 cloudy Overskyet 14° 0.01 mm 2% 7-9 m/s ESE ESE uv-2 1019,0
15:00 cloudy Overskyet 14° 0.01 mm 2% 7-9 m/s ESE ESE uv-2 1018,7
16:00 cloudy Overskyet 15° 0.01 mm 1% 7-9 m/s SE SE uv-1 1018,3
17:00 cloudy Overskyet 15° 0.01 mm 1% 6-9 m/s SE SE uv-1 1018,0
18:00 partly-cloudy-day Skyet 16° - 6-9 m/s SE SE - 1018,0
19:00 partly-cloudy-day Skyet 15° - 5-9 m/s ESE ESE - 1017,3
20:00 partly-cloudy-night Skyet 14° - 5-9 m/s ESE ESE - 1017,2
21:00 partly-cloudy-night Let skyet 14° - 5-9 m/s SE SE - 1017,1
22:00 partly-cloudy-night Let skyet 13° - 5-9 m/s SE SE - 1017,8
23:00 clear-night Klart 13° 0.01 mm 1% 6-8 m/s SE SE - 1017,9
00:00 clear-night Klart 12° 0.01 mm 1% 5-8 m/s SE SE - 1017,7
01:00 partly-cloudy-night Let skyet 12° 0.01 mm 1% 5-7 m/s SE SE - 1017,4
02:00 partly-cloudy-night Let skyet 12° 0.01 mm 1% 5-7 m/s SE SE - 1017,1
03:00 partly-cloudy-night Skyet 12° - 5-6 m/s SE SE - 1016,3
04:00 partly-cloudy-night Skyet 12° - 5-6 m/s SE SE - 1014,9
05:00 cloudy Overskyet 11° - 5-6 m/s ESE ESE - 1014,5
06:00 cloudy Overskyet 11° - 5-6 m/s ESE ESE - 1014,7
07:00 cloudy Overskyet 12° 0.01 mm 2% 5-6 m/s ESE ESE - 1014,6
08:00 cloudy Overskyet 12° 0.02 mm 3% 5-7 m/s ESE ESE - 1014,4
09:00 cloudy Overskyet 13° 0.01 mm 2% 5-7 m/s ESE ESE - 1014,1
10:00 cloudy Overskyet 13° 0.01 mm 2% 5-7 m/s ESE ESE uv-1 1013,9
11:00 cloudy Overskyet 14° 0.01 mm 2% 6-7 m/s ESE ESE uv-1 1013,7
12:00 cloudy Overskyet 15° 0.01 mm 2% 6-7 m/s ESE ESE uv-2 1013,4
13:00 cloudy Overskyet 15° 0.01 mm 2% 6-7 m/s ESE ESE uv-2 1013,0
14:00 cloudy Overskyet 15° 0.02 mm 2% 6-7 m/s ESE ESE uv-2 1012,6
15:00 cloudy Overskyet 16° 0.01 mm 2% 5-7 m/s ESE ESE uv-2 1012,1
16:00 cloudy Overskyet 16° - 5-7 m/s ESE ESE uv-1 1011,8
17:00 cloudy Overskyet 17° - 5-6 m/s ESE ESE uv-1 1011,0
18:00 cloudy Overskyet 16° - 5-6 m/s ESE ESE - 1010,7
19:00 cloudy Overskyet 16° - 4-5 m/s ESE ESE - 1010,8
20:00 cloudy Overskyet 15° 0.02 mm 4% 4-5 m/s ESE ESE - 1010,6
21:00 cloudy Overskyet 15° 0.03 mm 6% 4-5 m/s ESE ESE - 1010,6
22:00 cloudy Overskyet 14° 0.07 mm 9% 4-6 m/s SE SE - 1010,5
23:00 cloudy Overskyet 14° 0.1 mm 12% 5-6 m/s SE SE - 1010,4
00:00 cloudy Overskyet 13° 0.1 mm 12% 5-7 m/s SE SE - 1010,2
01:00 cloudy Overskyet 13° 0.09 mm 12% 5-7 m/s SE SE - 1010,0
02:00 cloudy Overskyet 13° 0.09 mm 13% 5-7 m/s SE SE - 1009,9
03:00 cloudy Overskyet 13° 0.07 mm 11% 5-7 m/s ESE ESE - 1009,7
04:00 cloudy Overskyet 13° 0.05 mm 7% 5-7 m/s ESE ESE - 1009,6